WZZUK0 EGSS-EIDW

Flight info

Callsign WZZUK0
Flight time 1h 0m
Altitude 34000
Route NUGBO1S NUGBO M183 SILVA P86 DIDZA N14 OKSAW DCT BIBPE DCT OKTAD DCT MEDOG DCT KRAGY DCT PEMOB M17 VATRY VATRY3R
Aircraft A321/M-SDE3FGHIRWY/LB1

Departure

Time 2026-05-05 15:11
Airport London Stansted Airport (EGSS)

Arrival

Time 2026-05-05 16:12
Airport Dublin Airport (EIDW)
Time Latitude Longitude Altitude Speed Heading
2026-05-05 14:47 51.88923 0.25200 357 ft 0 kts 43°
2026-05-05 15:02 51.88922 0.25198 357 ft 1 kts 43°
2026-05-05 15:02 51.88915 0.25187 357 ft 2 kts 36°
2026-05-05 15:02 51.88902 0.25176 357 ft 2 kts 17°
2026-05-05 15:02 51.88887 0.25171 357 ft 2 kts
2026-05-05 15:03 51.88872 0.25174 357 ft 2 kts 344°
2026-05-05 15:03 51.88858 0.25183 357 ft 2 kts 328°
2026-05-05 15:03 51.88849 0.25194 357 ft 0 kts 315°
2026-05-05 15:03 51.88845 0.25202 357 ft 0 kts 313°
2026-05-05 15:05 51.88865 0.25167 357 ft 14 kts 313°
2026-05-05 15:05 51.88948 0.25016 357 ft 12 kts 295°
2026-05-05 15:06 51.88886 0.24858 357 ft 23 kts 224°
2026-05-05 15:06 51.88747 0.24647 357 ft 25 kts 223°
2026-05-05 15:06 51.88617 0.24451 357 ft 24 kts 223°
2026-05-05 15:06 51.88493 0.24265 357 ft 23 kts 223°
2026-05-05 15:07 51.88378 0.24093 357 ft 21 kts 223°
2026-05-05 15:07 51.88268 0.23930 357 ft 22 kts 223°
2026-05-05 15:07 51.88156 0.23761 357 ft 17 kts 223°
2026-05-05 15:07 51.88055 0.23609 357 ft 23 kts 223°
2026-05-05 15:08 51.87916 0.23400 357 ft 30 kts 223°
2026-05-05 15:08 51.87864 0.23242 357 ft 10 kts 307°
2026-05-05 15:08 51.87904 0.23096 357 ft 18 kts 245°
2026-05-05 15:08 51.87794 0.22920 357 ft 26 kts 223°
2026-05-05 15:09 51.87644 0.22695 357 ft 32 kts 223°
2026-05-05 15:09 51.87472 0.22434 357 ft 31 kts 222°
2026-05-05 15:09 51.87389 0.22203 357 ft 14 kts 291°
2026-05-05 15:09 51.87421 0.22133 357 ft 0 kts 314°
2026-05-05 15:10 51.87421 0.22132 357 ft 0 kts 314°
2026-05-05 15:10 51.87435 0.22110 357 ft 8 kts 313°
2026-05-05 15:10 51.87495 0.22017 357 ft 14 kts 342°
2026-05-05 15:10 51.87552 0.22078 357 ft 14 kts 40°
2026-05-05 15:11 51.87740 0.22355 357 ft 71 kts 43°
2026-05-05 15:11 51.88282 0.23165 357 ft 137 kts 43°
2026-05-05 15:11 51.89070 0.24353 562 ft 167 kts 43°
2026-05-05 15:11 51.89860 0.25556 1339 ft 156 kts 43°
2026-05-05 15:12 51.90657 0.26773 1921 ft 158 kts 43°
2026-05-05 15:12 51.91458 0.27991 2278 ft 164 kts 43°
2026-05-05 15:12 51.92373 0.29173 2511 ft 176 kts 22°
2026-05-05 15:12 51.93602 0.29256 2741 ft 188 kts 338°
2026-05-05 15:13 51.94742 0.28082 3020 ft 201 kts 322°
2026-05-05 15:13 51.95885 0.26652 3305 ft 215 kts 322°
2026-05-05 15:13 51.96986 0.24873 3520 ft 235 kts 299°
2026-05-05 15:13 51.97504 0.22269 3849 ft 252 kts 279°
2026-05-05 15:14 51.97731 0.19359 4301 ft 265 kts 276°
2026-05-05 15:14 51.97952 0.16373 4785 ft 268 kts 277°
2026-05-05 15:14 51.98218 0.13379 4983 ft 268 kts 278°
2026-05-05 15:14 51.98515 0.10419 4987 ft 268 kts 279°
2026-05-05 15:15 51.98784 0.07421 4989 ft 267 kts 274°
2026-05-05 15:15 51.98724 0.04318 4991 ft 267 kts 261°
2026-05-05 15:15 51.98380 0.01264 4994 ft 267 kts 258°
2026-05-05 15:15 51.97984 -0.01704 4996 ft 267 kts 257°
2026-05-05 15:16 51.97585 -0.04675 4996 ft 267 kts 258°
2026-05-05 15:16 51.97190 -0.07657 5000 ft 268 kts 258°
2026-05-05 15:16 51.96800 -0.10636 5278 ft 275 kts 258°
2026-05-05 15:16 51.96403 -0.13674 6090 ft 274 kts 258°
2026-05-05 15:17 51.96006 -0.16711 6893 ft 274 kts 258°
2026-05-05 15:17 51.95613 -0.19723 7593 ft 278 kts 258°
2026-05-05 15:17 51.95206 -0.22827 8297 ft 281 kts 258°
2026-05-05 15:17 51.94801 -0.25915 8981 ft 283 kts 258°
2026-05-05 15:18 51.94390 -0.29048 9650 ft 286 kts 258°
2026-05-05 15:18 51.93970 -0.32235 10294 ft 290 kts 258°
2026-05-05 15:18 51.93538 -0.35512 10650 ft 304 kts 258°
2026-05-05 15:18 51.93152 -0.38432 10893 ft 317 kts 258°
2026-05-05 15:19 51.92627 -0.42394 11197 ft 334 kts 258°
2026-05-05 15:19 51.92132 -0.46118 11468 ft 348 kts 258°
2026-05-05 15:19 51.91605 -0.50070 11937 ft 356 kts 258°
2026-05-05 15:19 51.91077 -0.54023 12554 ft 358 kts 258°
2026-05-05 15:20 51.90545 -0.57997 13154 ft 361 kts 258°
2026-05-05 15:20 51.90007 -0.62014 13740 ft 364 kts 258°
2026-05-05 15:20 51.89468 -0.66051 14295 ft 367 kts 257°
2026-05-05 15:20 51.88927 -0.70101 14840 ft 370 kts 257°
2026-05-05 15:21 51.88370 -0.74244 15389 ft 373 kts 257°
2026-05-05 15:21 51.87813 -0.78357 15920 ft 376 kts 257°
2026-05-05 15:21 51.87246 -0.82519 16441 ft 379 kts 257°
2026-05-05 15:21 51.86677 -0.86672 16947 ft 382 kts 257°
2026-05-05 15:22 51.86097 -0.90894 17448 ft 385 kts 257°
2026-05-05 15:22 51.85507 -0.95152 17938 ft 388 kts 256°
2026-05-05 15:22 51.84615 -0.99240 18387 ft 391 kts 244°
2026-05-05 15:22 51.83169 -1.03045 18855 ft 393 kts 232°
2026-05-05 15:23 51.81325 -1.06345 19327 ft 396 kts 225°
2026-05-05 15:23 51.79362 -1.09525 19779 ft 398 kts 225°
2026-05-05 15:23 51.77369 -1.12712 20213 ft 401 kts 225°
2026-05-05 15:23 51.75401 -1.15956 20634 ft 404 kts 230°
2026-05-05 15:24 51.73996 -1.19883 20989 ft 407 kts 252°
2026-05-05 15:24 51.73504 -1.24460 21452 ft 407 kts 265°
2026-05-05 15:24 51.73258 -1.29027 21853 ft 410 kts 265°
2026-05-05 15:24 51.72997 -1.33610 22208 ft 413 kts 264°
2026-05-05 15:25 51.72692 -1.38239 22582 ft 416 kts 264°
2026-05-05 15:25 51.72348 -1.42928 22958 ft 418 kts 263°
2026-05-05 15:25 51.71986 -1.47583 23319 ft 420 kts 263°
2026-05-05 15:25 51.71606 -1.52323 23675 ft 422 kts 263°
2026-05-05 15:26 51.71227 -1.56999 24016 ft 425 kts 263°
2026-05-05 15:26 51.70840 -1.61790 24355 ft 427 kts 264°
2026-05-05 15:26 51.70642 -1.66539 24678 ft 429 kts 269°
2026-05-05 15:26 51.70695 -1.71388 25003 ft 431 kts 273°
2026-05-05 15:27 51.70961 -1.76204 25313 ft 433 kts 276°
2026-05-05 15:27 51.71326 -1.81014 25617 ft 435 kts 277°
2026-05-05 15:27 51.71808 -1.85830 25915 ft 437 kts 281°
2026-05-05 15:27 51.72451 -1.90654 26210 ft 439 kts 283°
2026-05-05 15:28 51.73170 -1.95508 26504 ft 441 kts 283°
2026-05-05 15:28 51.73906 -2.00417 26792 ft 443 kts 283°
2026-05-05 15:28 51.74632 -2.05278 27066 ft 445 kts 283°
2026-05-05 15:28 51.75358 -2.10177 27337 ft 447 kts 283°
2026-05-05 15:29 51.76083 -2.15092 27602 ft 449 kts 283°
2026-05-05 15:29 51.76805 -2.20007 27860 ft 450 kts 283°
2026-05-05 15:29 51.77528 -2.24955 28112 ft 452 kts 283°
2026-05-05 15:29 51.78251 -2.29923 28371 ft 453 kts 283°
2026-05-05 15:30 51.78962 -2.34822 28701 ft 453 kts 283°
2026-05-05 15:30 51.79676 -2.39768 29056 ft 451 kts 283°
2026-05-05 15:30 51.80389 -2.44725 29395 ft 451 kts 283°
2026-05-05 15:30 51.81107 -2.49726 29720 ft 450 kts 283°
2026-05-05 15:31 51.81810 -2.54637 30029 ft 449 kts 283°
2026-05-05 15:31 51.82502 -2.59595 30336 ft 449 kts 283°
2026-05-05 15:31 51.83168 -2.64474 30634 ft 448 kts 283°
2026-05-05 15:31 51.83845 -2.69487 30934 ft 448 kts 282°
2026-05-05 15:32 51.84508 -2.74424 31223 ft 447 kts 282°
2026-05-05 15:32 51.85163 -2.79312 31505 ft 446 kts 282°
2026-05-05 15:32 51.85819 -2.84215 31783 ft 446 kts 282°
2026-05-05 15:32 51.86481 -2.89175 32059 ft 445 kts 282°
2026-05-05 15:33 51.87130 -2.94055 32312 ft 445 kts 282°
2026-05-05 15:33 51.87777 -2.98927 32525 ft 446 kts 282°
2026-05-05 15:33 51.88427 -3.03845 32722 ft 447 kts 282°
2026-05-05 15:33 51.89077 -3.08776 32918 ft 448 kts 282°
2026-05-05 15:34 51.89739 -3.13812 33119 ft 449 kts 282°
2026-05-05 15:34 51.90385 -3.18751 33312 ft 449 kts 282°
2026-05-05 15:34 51.91037 -3.23753 33502 ft 450 kts 282°
2026-05-05 15:34 51.91679 -3.28689 33685 ft 451 kts 282°
2026-05-05 15:35 51.92321 -3.33648 33865 ft 451 kts 282°
2026-05-05 15:35 51.92963 -3.38634 33975 ft 453 kts 282°
2026-05-05 15:35 51.93605 -3.43630 33981 ft 453 kts 282°
2026-05-05 15:36 51.94892 -3.53712 33988 ft 453 kts 282°
2026-05-05 15:36 51.96166 -3.63702 33989 ft 453 kts 282°
2026-05-05 15:37 51.97435 -3.73760 33991 ft 453 kts 281°
2026-05-05 15:37 51.98696 -3.83844 33991 ft 453 kts 281°
2026-05-05 15:38 51.99942 -3.93879 33991 ft 453 kts 281°
2026-05-05 15:38 52.01182 -4.03929 33991 ft 453 kts 281°
2026-05-05 15:39 52.02406 -4.13932 33990 ft 453 kts 281°
2026-05-05 15:39 52.03636 -4.24065 33990 ft 453 kts 281°
2026-05-05 15:40 52.04855 -4.34177 33990 ft 453 kts 281°
2026-05-05 15:40 52.06057 -4.44233 33990 ft 453 kts 281°
2026-05-05 15:41 52.07250 -4.54284 33990 ft 453 kts 281°
2026-05-05 15:41 52.08439 -4.64381 33989 ft 453 kts 281°
2026-05-05 15:42 52.09620 -4.74511 33991 ft 453 kts 280°
2026-05-05 15:42 52.10809 -4.84663 33990 ft 453 kts 281°
2026-05-05 15:43 52.11995 -4.94844 33955 ft 454 kts 281°
2026-05-05 15:43 52.12574 -4.99894 33505 ft 456 kts 281°
2026-05-05 15:43 52.13198 -5.05010 32727 ft 459 kts 285°
2026-05-05 15:43 52.14280 -5.09880 31771 ft 465 kts 296°
2026-05-05 15:44 52.15962 -5.14368 30851 ft 468 kts 308°
2026-05-05 15:44 52.18168 -5.18241 30015 ft 469 kts 319°
2026-05-05 15:44 52.20798 -5.21329 29207 ft 469 kts 330°
2026-05-05 15:44 52.23701 -5.23838 28417 ft 469 kts 333°
2026-05-05 15:45 52.26605 -5.26189 27673 ft 468 kts 334°
2026-05-05 15:45 52.29401 -5.28432 27197 ft 461 kts 334°
2026-05-05 15:45 52.32271 -5.30754 26690 ft 455 kts 334°
2026-05-05 15:45 52.35052 -5.33028 26189 ft 449 kts 334°
2026-05-05 15:46 52.37798 -5.35288 25687 ft 444 kts 333°
2026-05-05 15:46 52.40551 -5.37559 25181 ft 438 kts 333°
2026-05-05 15:46 52.43233 -5.39776 24683 ft 433 kts 333°
2026-05-05 15:46 52.45925 -5.42008 24181 ft 429 kts 333°
2026-05-05 15:47 52.48544 -5.44183 23689 ft 424 kts 333°
2026-05-05 15:47 52.50286 -5.45631 23361 ft 421 kts 333°
2026-05-05 15:47 52.53764 -5.48433 22706 ft 416 kts 336°
2026-05-05 15:47 52.56441 -5.50267 22211 ft 413 kts 340°
2026-05-05 15:48 52.59108 -5.51802 21729 ft 409 kts 342°
2026-05-05 15:48 52.61813 -5.53216 21245 ft 406 kts 343°
2026-05-05 15:48 52.64513 -5.54600 20759 ft 403 kts 343°
2026-05-05 15:48 52.67139 -5.55944 20285 ft 400 kts 343°
2026-05-05 15:49 52.69795 -5.57308 19803 ft 397 kts 343°
2026-05-05 15:49 52.72400 -5.58646 19328 ft 395 kts 343°
2026-05-05 15:49 52.75029 -5.59994 18848 ft 392 kts 343°
2026-05-05 15:49 52.77600 -5.61315 18375 ft 390 kts 343°
2026-05-05 15:50 52.80192 -5.62651 17898 ft 388 kts 343°
2026-05-05 15:50 52.82739 -5.63968 17426 ft 385 kts 343°
2026-05-05 15:50 52.85272 -5.65282 16956 ft 383 kts 342°
2026-05-05 15:50 52.87817 -5.66614 16481 ft 381 kts 342°
2026-05-05 15:51 52.90315 -5.67926 16014 ft 379 kts 342°
2026-05-05 15:51 52.92829 -5.69244 15541 ft 376 kts 342°
2026-05-05 15:51 52.95291 -5.70532 15077 ft 374 kts 342°
2026-05-05 15:51 52.97775 -5.71831 14607 ft 372 kts 342°
2026-05-05 15:52 53.00210 -5.73105 14146 ft 370 kts 342°
2026-05-05 15:52 53.02667 -5.74391 13677 ft 368 kts 342°
2026-05-05 15:52 53.05076 -5.75654 13218 ft 366 kts 342°
2026-05-05 15:52 53.07507 -5.76929 12752 ft 364 kts 342°
2026-05-05 15:53 53.09890 -5.78180 12295 ft 362 kts 342°
2026-05-05 15:53 53.12206 -5.79727 11800 ft 361 kts 328°
2026-05-05 15:53 53.14095 -5.82550 11320 ft 358 kts 306°
2026-05-05 15:53 53.15295 -5.86235 10865 ft 355 kts 294°
2026-05-05 15:54 53.16261 -5.89983 10421 ft 353 kts 292°
2026-05-05 15:54 53.17204 -5.93728 10294 ft 339 kts 292°
2026-05-05 15:54 53.18103 -5.97277 10200 ft 327 kts 293°
2026-05-05 15:54 53.18982 -6.00714 10108 ft 314 kts 293°
2026-05-05 15:55 53.19824 -6.03990 10028 ft 302 kts 293°
2026-05-05 15:55 53.20653 -6.07204 9756 ft 297 kts 293°
2026-05-05 15:55 53.21465 -6.10350 9497 ft 293 kts 293°
2026-05-05 15:55 53.22264 -6.13449 9184 ft 290 kts 293°
2026-05-05 15:56 53.23061 -6.16540 8753 ft 292 kts 293°
2026-05-05 15:56 53.23860 -6.19642 8380 ft 292 kts 293°
2026-05-05 15:56 53.24668 -6.22776 8113 ft 287 kts 293°
2026-05-05 15:56 53.25458 -6.25852 7812 ft 284 kts 293°
2026-05-05 15:57 53.26237 -6.28894 7407 ft 286 kts 293°
2026-05-05 15:57 53.27011 -6.31916 7088 ft 283 kts 293°
2026-05-05 15:57 53.27777 -6.34913 7005 ft 272 kts 293°
2026-05-05 15:57 53.28503 -6.37769 6994 ft 258 kts 291°
2026-05-05 15:58 53.28777 -6.40596 6975 ft 247 kts 261°
2026-05-05 15:58 53.28095 -6.43204 6989 ft 247 kts 228°
2026-05-05 15:58 53.26803 -6.45102 7000 ft 247 kts 218°
2026-05-05 15:58 53.25436 -6.46835 6997 ft 247 kts 217°
2026-05-05 15:59 53.24070 -6.48572 6996 ft 247 kts 218°
2026-05-05 15:59 53.22710 -6.50346 6995 ft 247 kts 221°
2026-05-05 15:59 53.21589 -6.52552 6991 ft 247 kts 241°
2026-05-05 15:59 53.20895 -6.55161 6995 ft 247 kts 250°
2026-05-05 16:00 53.20302 -6.57875 6995 ft 247 kts 251°
2026-05-05 16:00 53.19727 -6.60548 6995 ft 247 kts 250°
2026-05-05 16:00 53.19141 -6.63227 6995 ft 247 kts 250°
2026-05-05 16:00 53.18598 -6.65968 6989 ft 247 kts 259°
2026-05-05 16:01 53.18535 -6.68814 6991 ft 247 kts 277°
2026-05-05 16:01 53.18816 -6.71670 6995 ft 247 kts 281°
2026-05-05 16:01 53.19140 -6.74447 6995 ft 247 kts 281°
2026-05-05 16:01 53.19471 -6.77290 6995 ft 247 kts 281°
2026-05-05 16:02 53.19786 -6.80085 6995 ft 247 kts 280°
2026-05-05 16:02 53.20284 -6.82821 6989 ft 247 kts 297°
2026-05-05 16:02 53.21261 -6.85185 6996 ft 247 kts 310°
2026-05-05 16:02 53.22392 -6.87343 6995 ft 247 kts 312°
2026-05-05 16:03 53.23538 -6.89468 6995 ft 247 kts 312°
2026-05-05 16:03 53.24844 -6.91334 6976 ft 246 kts 336°
2026-05-05 16:03 53.26508 -6.91827 6986 ft 247 kts
2026-05-05 16:03 53.28074 -6.90783 6992 ft 247 kts 39°
2026-05-05 16:04 53.29175 -6.88591 7003 ft 247 kts 57°
2026-05-05 16:04 53.30102 -6.86158 6991 ft 247 kts 58°
2026-05-05 16:04 53.30987 -6.83808 6753 ft 249 kts 57°
2026-05-05 16:04 53.31918 -6.81371 6451 ft 248 kts 57°
2026-05-05 16:05 53.32851 -6.78963 6160 ft 247 kts 57°
2026-05-05 16:05 53.33785 -6.76567 5873 ft 245 kts 57°
2026-05-05 16:05 53.34724 -6.74165 5588 ft 244 kts 57°
2026-05-05 16:05 53.35643 -6.71816 5310 ft 242 kts 56°
2026-05-05 16:06 53.36786 -6.69771 5038 ft 239 kts 26°
2026-05-05 16:06 53.38384 -6.69105 4941 ft 239 kts
2026-05-05 16:06 53.40039 -6.68911 4801 ft 239 kts
2026-05-05 16:06 53.41702 -6.68713 4635 ft 238 kts
2026-05-05 16:07 53.43373 -6.68467 4282 ft 244 kts
2026-05-05 16:07 53.44917 -6.67254 3763 ft 250 kts 46°
2026-05-05 16:07 53.45661 -6.64784 3596 ft 236 kts 85°
2026-05-05 16:07 53.45373 -6.62047 3616 ft 235 kts 111°
2026-05-05 16:08 53.44733 -6.59562 3617 ft 235 kts 115°
2026-05-05 16:08 53.44060 -6.57045 3482 ft 235 kts 110°
2026-05-05 16:08 53.43628 -6.54420 3195 ft 233 kts 99°
2026-05-05 16:08 53.43451 -6.51725 2931 ft 226 kts 93°
2026-05-05 16:09 53.43363 -6.49182 2740 ft 206 kts 93°
2026-05-05 16:09 53.43257 -6.46851 2436 ft 195 kts 94°
2026-05-05 16:09 53.43135 -6.44670 2155 ft 185 kts 95°
2026-05-05 16:09 53.43012 -6.42593 1887 ft 170 kts 95°
2026-05-05 16:10 53.42901 -6.40694 1638 ft 156 kts 95°
2026-05-05 16:10 53.42802 -6.38949 1418 ft 147 kts 95°
2026-05-05 16:10 53.42706 -6.37237 1227 ft 146 kts 95°
2026-05-05 16:10 53.42611 -6.35545 1034 ft 146 kts 95°
2026-05-05 16:11 53.42516 -6.33850 843 ft 145 kts 95°
2026-05-05 16:11 53.42235 -6.28819 274 ft 143 kts 95°
2026-05-05 16:12 53.42152 -6.27332 251 ft 90 kts 96°
2026-05-05 16:12 53.42112 -6.26647 251 ft 14 kts 95°
2026-05-05 16:13 53.42157 -6.26151 251 ft 0 kts 47°
2026-05-05 16:13 53.42158 -6.26149 251 ft 1 kts 47°
2026-05-05 16:14 53.42262 -6.26054 251 ft 9 kts 309°
2026-05-05 16:14 53.42384 -6.25948 251 ft 15 kts 46°
2026-05-05 16:15 53.42494 -6.25930 251 ft 9 kts 275°
2026-05-05 16:15 53.42519 -6.26068 251 ft 2 kts
2026-05-05 16:16 53.42567 -6.26060 251 ft 4 kts
2026-05-05 16:16 53.42588 -6.26056 251 ft 0 kts